Temp
22 22 24 26 27 28 34 33 35 34 34 35 35 34 32 31 31 29 30 29 28 26 23 22 21 22 21 21 22 22 21 21 22 22 22 21 21 21 21 21 21 21 21 21 21 21 21 21 21
26 26 26 27 27 30 33 34 33 34 34 34 34 33 31 30 32 31 29 28 27 26 25 23 21 21 21 21 21 21 21 21 21 21 21 21 21 21 21 21 21 21 21 21 21 21 21 21 20
26 26 28 27 28 32 33 34 34 34 34 34 32 32 32 30 31 30 29 27 25 25 23 22 21 21 21 21 21 21 21 21 21 21 21 21 21 21 21 21 21 21 21 21 21 21 21 21 20
25 26 30 28 32 35 35 35 35 34 34 33 33 30 32 31 31 29 29 28 26 25 25 21 21 21 21 21 21 21 21 21 21 21 21 21 21 21 21 21 21 21 21 21 21 21 21 21 20
22 27 29 27 33 35 36 35 35 33 34 33 32 30 30 31 30 29 29 30 29 26 25 22 20 20 21 21 21 21 21 21 21 21 21 21 21 21 21 21 21 21 21 21 21 21 21 21 21
28 31 29 31 34 35 35 35 34 32 33 33 32 31 28 30 30 30 30 30 28 28 26 23 21 20 20 21 21 21 21 21 21 21 21 21 21 21 21 21 22 22 22 22 22 22 21 22 22
27 26 30 34 33 33 34 36 34 33 32 33 33 29 30 31 30 30 30 30 27 27 26 25 23 21 21 21 21 21 21 21 21 21 21 22 21 21 21 21 21 21 21 22 22 22 22 22 22
28 30 32 32 32 32 34 34 34 32 32 35 33 29 30 31 30 30 30 30 27 26 25 24 25 24 24 22 21 21 21 21 21 22 22 23 23 22 23 23 22 22 22 23 23 23 23 23 24
30 28 30 32 32 32 33 32 34 34 33 34 33 32 31 30 30 30 30 30 29 27 27 26 26 26 26 24 22 21 22 21 23 23 23 23 24 24 24 24 23 23 24 24 24 25 24 24 25
31 28 30 30 34 33 31 31 33 33 32 32 33 32 29 30 30 31 30 30 30 27 26 25 25 27 25 26 23 24 23 24 24 25 24 25 25 25 25 24 24 25 25 25 26 26 25 25 26
34 30 28 27 32 33 30 31 34 33 32 33 31 30 30 31 31 31 30 30 29 27 26 26 25 25 26 24 24 24 25 25 24 24 25 25 25 25 26 25 25 26 26 25 26 27 28 28 29
32 31 30 30 30 30 29 30 32 33 33 34 32 32 31 32 32 32 31 30 29 29 28 26 24 24 24 26 26 26 26 26 26 25 25 25 27 26 26 27 27 27 27 27 28 27 27 28 28
33 32 32 32 31 31 31 30 28 31 33 34 33 32 32 32 32 32 31 30 29 28 27 27 25 24 24 24 26 27 26 27 26 26 26 27 27 26 27 27 27 28 28 28 28 28 28 28 28
34 33 32 31 30 27 27 26 27 28 33 32 32 32 33 33 32 31 31 30 29 28 27 26 26 24 24 24 25 25 26 26 27 26 26 25 26 26 26 27 28 28 28 27 27 27 28 29 29
35 33 33 28 30 28 27 26 24 24 32 32 32 32 33 33 32 31 30 29 29 28 27 26 26 25 23 24 24 26 26 27 27 26 25 25 26 25 27 27 28 28 27 27 27 28 29 30 29
35 33 30 30 29 28 28 27 24 26 31 32 33 33 33 33 32 31 30 30 29 28 27 26 27 25 25 25 26 27 27 27 27 26 26 25 25 25 26 27 27 27 28 29 29 29 30 30 30
35 33 30 29 30 28 28 26 25 26 31 32 32 32 32 32 32 30 30 30 29 27 27 27 27 26 25 24 26 26 25 27 27 27 27 26 25 25 26 27 26 26 29 29 29 29 29 30 30
32 34 32 32 30 29 29 25 27 28 30 29 29 31 31 32 32 31 30 29 29 27 27 26 26 25 24 25 25 25 26 27 27 27 26 25 26 26 25 27 27 26 29 28 28 27 29 30 30
35 33 25 29 33 31 29 25 27 26 26 27 24 30 31 32 31 31 30 30 28 28 27 25 25 25 24 25 26 26 27 27 27 27 25 25 26 26 26 27 27 27 28 27 27 28 28 30 30
34 33 31 28 34 31 30 26 28 26 25 25 24 24 26 30 31 31 30 30 29 28 26 26 25 24 24 25 26 26 26 26 26 26 26 26 26 25 26 25 26 24 27 26 27 27 28 30 30
35 35 33 33 33 34 30 26 24 27 27 26 24 28 26 27 27 32 31 30 30 29 27 26 24 24 24 25 25 25 25 25 25 25 26 26 26 26 26 26 25 26 27 27 27 27 28 30 30
34 36 28 23 33 31 34 27 26 25 26 27 27 26 24 21 25 29 32 30 31 30 28 27 26 24 24 24 26 25 26 27 27 26 26 26 26 26 26 25 26 26 26 28 27 27 26 28 31
32 35 35 33 32 33 33 27 25 28 27 28 29 29 28 24 29 31 33 31 31 30 29 28 26 24 24 24 24 26 25 27 26 26 25 25 25 26 26 25 25 25 27 26 26 27 26 28 29
35 34 35 35 36 34 33 35 26 28 30 29 29 30 29 29 31 31 30 32 26 30 30 28 26 25 24 23 24 24 24 26 27 27 25 26 26 26 25 26 25 25 26 26 26 26 26 26 27
34 34 33 32 32 33 37 36 33 29 34 32 30 30 30 30 30 28 31 28 30 28 30 29 27 25 24 24 24 24 24 24 25 25 26 27 27 27 26 25 25 26 25 25 26 26 26 26 27
33 34 34 32 34 36 36 34 33 35 35 34 32 31 32 31 31 30 31 23 25 27 30 29 27 26 25 25 24 24 24 25 25 25 25 27 28 27 25 25 26 25 25 25 26 26 27 27 27
34 33 36 35 33 35 33 35 35 36 34 34 33 32 31 30 30 31 29 30 30 31 29 29 27 26 26 26 25 25 24 24 25 24 25 26 27 27 26 25 25 26 25 25 25 26 26 26 26
35 36 34 35 32 33 32 31 25 34 34 34 34 34 32 30 30 30 28 29 28 31 30 29 28 26 26 27 26 25 26 25 24 24 24 26 26 26 26 26 26 25 26 25 25 27 26 26 26
33 33 34 36 35 34 33 33 32 35 35 34 34 34 32 30 30 30 29 31 30 30 29 29 28 27 27 27 27 26 26 26 24 25 25 25 25 26 25 25 26 26 25 25 25 25 25 25 26
35 34 35 33 33 35 35 29 35 34 35 35 34 34 32 30 29 29 29 30 28 23 28 28 28 28 27 27 27 26 26 26 26 26 25 25 24 24 24 25 25 26 26 26 25 25 27 26 26
Height
782 783 783 779 789 777 766 771 755 766 766 755 756 761 773 776 780 809 799 805 811 818 824 827 828 830 830 831 834 832 833 834 835 832 835 835 836 836 837 839 840 841 841 842 842 842 842 841 842
782 783 781 774 789 785 777 762 771 764 761 761 763 768 780 790 782 790 801 809 814 819 824 828 830 832 834 834 834 835 835 836 836 836 836 838 839 840 841 842 843 844 845 845 845 845 845 845 844
782 781 777 781 783 777 778 762 763 763 760 762 772 770 779 793 790 794 805 811 819 823 827 830 832 834 836 837 837 837 838 839 839 838 840 842 843 844 845 845 846 847 847 847 847 847 847 848 847
783 780 766 784 771 755 760 758 761 767 761 766 771 793 785 791 793 802 807 811 817 822 827 832 834 837 838 839 839 840 841 842 842 842 842 844 845 847 848 849 849 849 848 849 849 850 849 849 850
783 775 779 789 767 752 752 756 758 769 767 773 776 793 796 795 801 806 809 810 814 823 829 834 836 838 840 841 842 844 845 845 845 845 847 848 848 850 851 850 852 851 851 851 851 851 852 852 852
779 763 785 779 768 756 756 756 762 772 772 774 781 793 804 801 804 808 809 812 818 821 828 835 838 840 841 843 845 846 847 848 848 848 849 850 851 852 854 855 855 854 854 854 854 854 854 854 854
783 785 778 765 773 771 767 753 765 773 776 780 779 802 801 801 805 808 810 813 820 826 830 835 839 841 843 845 846 848 849 850 851 851 851 852 853 854 855 857 857 857 857 857 857 856 856 855 854
775 769 769 769 781 784 765 762 763 775 782 771 780 805 803 801 806 808 813 816 822 828 834 837 839 841 844 847 849 850 851 852 854 854 855 854 856 857 857 858 859 859 859 859 859 858 857 856 856
769 788 784 775 776 780 770 779 767 768 778 775 779 789 796 804 807 811 815 818 823 829 832 835 839 840 843 847 850 851 852 853 855 856 857 856 857 859 861 860 860 861 861 861 860 858 857 857 856
767 782 784 773 760 772 779 779 776 777 782 786 784 794 805 805 809 812 815 819 821 831 835 838 840 840 843 845 851 853 855 855 857 858 858 858 858 860 862 862 862 862 861 860 859 858 856 855 855
750 774 783 784 767 765 784 780 771 777 788 784 795 799 805 806 810 811 816 817 824 830 835 839 842 843 845 849 850 852 853 856 859 859 859 861 861 861 862 861 862 861 860 860 859 859 857 857 856
767 767 774 777 775 780 787 781 779 779 779 780 791 798 803 807 808 809 814 820 827 829 833 839 845 847 848 849 849 852 853 855 857 861 862 862 861 861 860 861 864 862 864 863 861 862 862 861 859
763 765 767 767 773 779 783 790 800 791 781 783 793 799 803 804 807 810 815 823 829 833 837 841 846 848 850 850 851 852 855 855 859 861 861 862 862 863 863 863 863 863 862 863 863 863 861 862 862
754 760 766 772 782 792 798 808 803 798 784 790 796 799 802 804 807 813 817 824 830 833 838 843 846 850 852 853 854 856 855 857 859 863 864 864 863 865 866 865 864 865 865 865 866 864 863 862 863
752 767 768 784 781 793 799 814 817 806 791 795 796 798 801 805 810 816 820 825 829 833 839 844 847 851 853 855 856 856 858 858 860 863 867 867 867 867 866 866 866 866 868 866 866 865 863 863 864
757 764 791 782 786 793 796 818 819 806 796 796 795 797 801 804 809 817 822 825 829 832 840 844 844 850 853 855 856 856 857 859 861 865 868 869 870 870 868 868 868 869 867 866 866 864 864 863 864
755 772 787 792 780 792 799 818 813 807 794 796 796 798 800 804 809 816 821 824 829 835 841 843 846 850 854 857 857 858 861 860 862 864 866 870 871 871 869 869 872 869 868 867 865 867 866 866 863
772 764 772 773 781 785 794 815 807 801 796 802 804 801 803 803 808 814 820 824 830 836 842 845 847 851 855 858 859 860 861 861 863 865 866 871 872 873 871 872 873 870 869 869 870 870 870 867 865
751 766 803 775 758 776 795 811 808 806 808 809 815 803 804 804 809 812 819 825 831 836 841 846 849 853 856 858 857 860 860 862 864 865 869 872 873 874 872 873 873 871 870 874 874 871 870 868 867
755 764 778 765 756 772 789 809 802 810 810 811 819 815 814 806 809 811 817 824 828 835 842 845 849 854 855 856 857 858 861 863 866 866 870 872 874 875 874 874 874 876 875 877 875 872 870 868 869
749 750 758 764 759 756 781 814 818 810 812 815 818 809 813 815 809 807 816 820 824 831 838 844 849 853 856 857 858 860 861 865 866 867 869 871 873 875 876 876 877 875 874 875 876 874 872 869 870
761 737 771 800 765 790 762 822 814 815 812 811 812 812 819 819 818 810 809 819 819 827 835 841 846 853 855 857 857 860 862 861 864 866 868 870 873 875 876 878 878 878 876 875 877 876 874 871 867
765 741 748 749 765 770 772 808 818 799 810 800 796 798 806 821 810 801 800 810 813 823 830 838 845 851 853 857 857 860 861 861 864 865 869 870 872 875 876 877 879 879 878 877 878 879 876 873 870
744 756 751 747 749 777 765 759 813 796 783 789 790 790 798 805 800 800 804 803 818 819 825 834 843 849 852 856 857 860 861 860 861 864 867 868 869 872 875 876 878 879 878 878 879 880 880 878 875
758 763 782 795 789 783 736 751 765 768 754 769 780 783 790 797 801 802 800 805 812 822 822 830 841 847 851 854 857 859 861 863 864 865 866 865 866 868 870 875 877 878 879 879 880 881 880 880 879
763 758 766 797 778 758 738 767 764 738 743 751 763 774 778 788 794 798 799 809 818 821 819 827 838 845 849 852 855 857 860 861 863 863 864 865 864 866 869 874 875 877 879 880 880 880 880 879 879
757 769 736 754 767 761 768 747 741 731 746 751 761 767 775 782 790 794 803 804 808 811 820 826 835 842 846 850 853 856 859 861 861 862 864 864 865 865 869 872 874 876 878 880 880 879 879 880 880
747 737 770 755 789 782 778 782 808 754 749 751 754 757 767 781 788 796 804 804 809 809 818 824 832 839 843 846 851 854 856 859 861 862 864 864 864 866 869 871 873 875 877 878 879 878 878 879 880
757 760 755 745 751 769 781 764 755 730 734 744 749 752 761 778 785 793 798 799 803 805 813 821 829 836 840 843 847 851 853 855 859 861 862 864 865 866 868 870 872 873 875 877 878 878 878 879 879
735 748 748 767 775 754 750 787 741 728 733 735 744 748 756 772 785 795 798 799 798 801 806 822 826 832 837 840 844 847 851 853 856 858 859 861 863 866 868 869 870 872 873 874 876 877 876 877 878
Wind_Speed
6 6 4 6 4 5 14 18 16 17 16 14 6 15 16 15 13 13 21 21 20 19 15 14 13 13 15 17 15 16 15 16 17 18 19 18 19 20 20 20 20 19 20 19 19 18 18 18 17
6 5 6 5 4 7 13 17 18 13 15 11 9 13 17 18 21 19 19 20 20 18 15 15 13 13 14 15 15 15 15 16 18 18 18 18 19 19 19 20 19 18 18 18 18 18 18 16 17
1 6 7 3 4 9 16 14 17 17 13 13 11 17 11 20 16 19 23 22 18 16 15 15 14 13 13 14 14 14 15 17 18 17 17 17 18 19 19 18 18 18 17 16 16 16 16 16 15
2 4 5 2 6 14 19 17 20 18 13 10 18 14 20 16 21 23 22 26 23 21 17 14 13 13 13 13 13 14 15 16 17 18 17 17 17 17 18 18 17 16 16 14 13 13 12 11 12
1 5 3 6 10 21 17 20 17 13 14 14 17 21 17 17 24 21 19 18 21 18 15 13 12 12 12 13 12 13 14 15 15 16 16 16 16 16 16 17 16 16 15 15 17 15 15 15 13
3 4 3 10 16 17 16 16 15 15 13 11 22 18 11 22 21 20 18 18 18 20 17 14 12 12 12 11 12 12 13 15 15 15 16 16 15 15 15 15 15 16 17 16 16 14 14 14 13
3 3 6 18 16 16 12 12 9 11 11 19 18 19 14 19 20 18 17 18 25 15 16 13 12 11 12 13 12 12 13 14 13 15 15 15 14 14 14 14 13 15 15 16 15 13 12 13 13
4 7 7 13 15 14 11 8 6 11 12 13 18 9 19 20 20 18 17 17 20 18 14 11 12 14 12 13 12 12 12 14 15 14 15 16 16 14 13 13 13 12 12 12 12 11 12 15 15
8 2 2 12 15 10 13 8 6 8 10 8 4 20 22 20 20 19 17 16 15 15 13 16 14 11 12 14 11 13 12 13 14 14 12 11 13 12 11 12 11 11 11 10 10 9 5 10 15
8 3 6 8 11 14 12 8 9 11 10 9 18 24 25 19 18 17 17 16 18 14 14 12 13 13 8 16 11 13 12 12 8 10 9 6 12 14 12 10 11 10 8 9 10 6 1 6 6
7 3 10 1 5 9 8 9 6 9 11 15 19 23 21 20 18 15 16 14 14 21 21 15 9 13 10 11 12 14 15 12 10 7 10 11 11 12 12 9 7 5 5 1 4 10 7 8 8
4 11 12 8 5 10 10 4 11 8 11 16 19 21 20 17 17 16 16 18 13 13 14 18 11 9 7 10 5 11 11 11 13 11 10 10 12 7 10 11 9 6 9 7 9 10 10 9 10
8 13 8 15 9 12 11 12 7 7 5 18 19 19 17 15 15 16 15 17 14 14 13 13 12 9 9 3 9 8 11 10 12 11 7 10 11 9 9 7 8 5 8 9 9 10 8 10 10
11 13 10 7 13 8 11 5 3 5 13 19 18 18 16 14 15 15 16 16 15 14 15 13 13 12 8 11 8 10 8 13 12 11 9 8 8 9 8 6 8 7 9 7 9 7 8 7 9
14 10 10 12 11 14 16 6 8 6 12 17 17 15 15 15 15 13 14 14 15 14 15 13 13 12 11 11 11 9 12 12 12 13 8 7 6 6 5 6 6 9 4 4 6 4 4 6 9
15 13 9 11 13 10 6 13 4 10 14 17 17 15 14 13 16 15 14 14 15 16 14 13 14 13 12 12 10 11 10 11 12 13 10 5 5 4 2 3 10 4 3 5 5 5 6 5 7
13 11 11 13 13 11 8 8 13 17 15 16 15 16 14 14 15 16 15 14 15 16 15 13 12 13 11 10 8 9 9 10 11 12 10 7 5 1 3 8 6 4 5 4 7 6 5 3 3
9 14 14 15 15 16 16 10 18 18 13 9 5 14 12 15 15 17 15 16 15 16 15 13 13 12 11 10 9 11 9 11 10 9 14 8 6 2 5 7 2 6 4 7 9 9 4 3 4
9 8 6 4 22 19 13 11 18 9 9 9 7 8 12 14 13 17 17 16 17 16 16 15 13 12 11 12 12 9 12 10 8 9 9 5 5 4 2 7 2 5 8 10 3 3 1 5 1
6 16 13 21 16 12 13 12 16 16 14 11 5 11 11 21 15 17 19 16 17 19 18 14 12 12 11 8 5 4 6 7 7 7 10 7 6 4 3 5 3 1 7 4 5 7 10 6 3
15 16 5 1 13 8 15 11 14 16 16 18 14 19 2 9 1 17 14 15 19 16 17 18 15 13 11 8 6 5 4 5 8 8 10 9 8 7 2 2 4 2 3 9 5 5 6 7 4
12 5 15 22 16 8 17 5 16 17 21 22 25 19 11 7 13 18 21 16 16 19 15 15 14 13 13 11 10 11 9 7 8 11 10 12 9 8 7 5 2 3 6 3 1 4 10 8 3
5 10 10 3 13 6 8 6 5 22 20 27 27 26 18 25 26 16 21 23 21 19 18 16 15 14 11 11 6 10 11 7 8 7 5 5 10 9 8 7 5 4 5 3 4 3 8 9 12
5 8 10 8 9 11 20 13 12 19 23 24 21 25 22 23 17 10 17 24 19 16 18 18 16 14 12 10 9 6 4 7 9 10 9 12 12 12 11 9 7 5 4 3 5 2 2 7 8
12 14 8 7 6 10 2 6 11 5 18 23 26 23 25 25 18 14 16 9 21 21 18 19 17 15 14 12 10 8 6 4 3 6 10 10 12 12 15 11 9 8 6 4 4 3 2 0 4
17 17 11 14 12 13 16 6 12 20 12 16 22 22 23 25 21 17 14 32 40 23 17 18 18 16 14 13 11 9 9 8 9 9 5 10 8 10 12 10 10 10 7 6 6 7 7 4 1
14 16 21 18 15 12 3 1 8 14 14 14 20 23 20 20 21 20 9 8 17 20 21 17 18 16 15 14 12 10 9 7 7 5 5 6 5 6 7 11 10 11 8 6 7 8 6 2 3
18 8 15 11 16 17 11 12 2 12 14 14 14 21 22 18 21 18 19 20 18 22 21 19 18 18 17 15 13 12 12 9 7 8 9 7 6 8 10 10 11 11 10 8 8 10 9 6 7
12 13 9 14 13 13 12 5 8 16 14 14 14 16 22 21 20 17 15 20 14 18 24 21 20 19 19 16 15 13 11 11 9 10 10 9 9 10 11 11 11 12 12 10 9 11 4 6 7
10 18 15 10 12 13 17 5 12 5 8 10 10 14 21 19 20 17 17 16 18 20 18 15 20 20 19 19 17 16 14 11 11 10 10 10 12 12 12 12 11 12 12 10 10 10 10 10 9
Wind_Direction
175 193 230 274 242 234 92 107 110 116 110 87 85 60 66 29 37 94 140 126 126 122 120 114 113 103 96 91 90 88 86 86 91 91 93 94 95 93 94 96 95 95 95 96 96 89 84 82 80
207 223 243 245 273 125 112 124 123 114 111 111 89 106 68 79 95 113 114 125 119 116 116 117 111 104 97 93 86 85 80 85 87 89 90 92 94 94 95 95 93 94 95 93 92 88 80 81 80
205 260 258 192 238 124 125 132 120 119 143 111 98 39 70 105 123 115 125 111 110 116 113 113 113 111 101 95 91 84 83 83 86 89 92 95 99 97 94 94 94 94 93 92 91 89 80 74 75
286 246 241 217 132 115 124 122 119 139 107 91 109 91 103 91 106 122 132 138 128 142 117 118 113 108 104 98 92 88 86 88 91 91 91 94 100 98 94 93 89 90 89 86 95 82 69 78 77
220 243 213 232 109 115 121 122 142 112 119 118 106 112 97 98 114 127 128 134 120 115 124 123 120 115 109 102 98 95 93 92 94 95 96 99 101 101 98 92 89 87 90 92 91 86 81 85 85
257 228 206 127 118 114 113 145 103 97 88 93 112 113 107 121 130 135 140 123 123 109 118 121 119 115 112 110 103 98 93 96 97 98 103 103 106 106 101 96 93 91 89 97 90 88 81 80 82
287 316 201 120 116 113 134 154 117 111 98 119 127 111 136 145 133 138 133 121 98 120 109 125 123 116 115 116 111 106 101 101 102 99 103 106 107 108 107 101 95 90 91 92 89 88 86 80 77
209 258 120 124 130 132 112 101 107 98 93 125 120 137 148 132 143 133 123 130 121 122 123 124 127 123 128 117 115 114 109 108 106 103 106 104 97 104 105 96 97 92 89 89 83 79 88 85 79
178 187 208 120 129 145 103 117 79 92 134 127 87 141 124 149 140 133 138 112 123 112 137 133 130 136 127 123 125 123 117 114 102 96 110 119 127 112 105 116 100 95 90 83 72 79 112 118 90
235 151 144 320 117 133 126 181 136 151 119 134 114 116 137 157 146 149 133 149 124 122 110 97 134 125 124 115 127 129 140 123 121 114 112 82 83 98 111 105 95 92 90 84 66 42 32 196 170
258 167 140 117 10 108 115 180 133 143 138 138 136 143 156 148 153 147 141 138 122 142 144 126 123 97 118 120 154 140 136 124 113 132 125 111 126 132 122 133 143 138 69 176 124 31 57 63 76
99 110 152 156 194 130 132 261 74 12 117 129 141 148 151 159 160 149 142 121 142 126 118 123 124 118 139 130 144 126 135 134 134 114 118 128 114 115 79 90 111 89 76 69 56 74 73 89 61
153 123 179 166 111 110 119 96 88 45 159 129 143 150 156 163 157 142 135 132 136 140 131 132 128 124 121 150 116 110 125 139 113 134 140 115 106 104 92 73 82 79 81 71 58 71 64 87 81
140 149 145 109 136 96 101 120 41 352 124 138 149 157 163 153 155 141 138 141 148 144 139 136 135 131 125 111 112 133 124 117 133 131 119 95 118 106 130 151 101 68 53 57 65 45 75 73 95
140 144 151 138 137 132 126 90 119 254 153 149 158 164 160 154 146 152 144 149 146 155 141 146 138 136 132 127 151 128 142 139 136 119 135 102 109 92 94 84 86 73 90 160 82 131 98 97 102
188 166 149 153 141 156 197 165 179 238 210 168 161 155 157 156 152 154 153 158 148 138 148 158 146 138 141 124 138 137 137 137 135 144 138 120 99 132 61 199 75 127 67 82 62 68 77 82 94
208 204 143 166 185 157 175 129 167 224 203 175 162 154 158 155 150 153 157 160 158 136 151 158 142 143 135 148 140 129 128 146 151 148 146 133 130 128 17 89 104 303 83 59 55 71 22 84 135
210 178 192 163 170 169 185 159 172 205 183 166 148 162 165 159 159 151 161 149 153 147 155 150 157 143 136 153 152 139 163 155 155 154 124 144 138 144 324 99 164 290 84 67 43 16 29 35 328
284 277 283 18 166 163 169 145 174 191 179 159 277 190 183 149 155 159 152 151 159 159 157 158 145 154 154 162 173 168 165 148 169 155 115 151 147 142 244 128 166 5 68 50 360 283 82 71 327
220 273 167 176 148 132 162 145 167 175 192 205 192 248 220 142 172 165 156 162 158 162 162 169 160 168 186 181 198 161 149 169 178 170 159 192 173 164 174 86 19 293 123 97 24 353 349 93 356
230 235 194 209 161 160 133 147 186 187 191 189 215 229 225 245 136 160 163 170 168 162 165 170 172 180 188 175 173 172 134 165 176 151 172 184 187 184 131 154 67 14 291 116 10 355 0 31 97
233 222 111 272 175 175 187 158 189 186 191 196 201 217 160 322 275 236 167 185 183 161 173 174 177 177 189 199 192 175 199 182 194 212 194 170 190 195 185 192 184 262 338 74 266 45 345 345 68
86 280 255 236 150 156 243 154 199 182 199 196 198 203 199 180 226 242 177 176 173 171 166 173 181 179 185 192 214 194 233 201 188 199 174 216 178 206 211 204 203 221 234 151 43 16 356 340 350
239 235 247 250 265 246 187 236 181 198 196 195 193 198 193 204 227 221 245 168 145 182 165 164 178 182 183 182 191 202 251 247 183 189 183 199 203 204 213 207 211 221 254 174 184 165 42 30 2
232 233 203 217 219 247 212 208 116 259 181 188 186 205 186 198 213 237 186 147 164 183 170 161 172 186 187 193 190 196 196 216 220 191 198 221 205 198 184 201 204 209 224 185 197 193 143 28 23
223 234 236 200 217 222 152 202 144 162 152 175 180 196 189 193 199 221 231 141 230 177 171 170 168 185 191 195 195 197 196 202 203 217 283 196 214 188 160 186 202 219 188 206 206 215 223 186 213
186 229 259 279 291 265 252 309 140 143 147 168 183 185 188 191 188 209 211 227 213 170 173 172 168 185 187 191 193 195 195 201 207 245 211 198 229 171 180 192 204 207 207 219 215 233 230 246 250
258 221 232 256 255 256 147 194 314 171 166 172 195 182 181 181 182 194 203 224 205 182 182 185 174 186 186 190 192 195 199 201 202 194 221 226 196 199 187 202 203 208 208 219 227 236 206 231 260
207 238 245 264 243 265 271 72 69 163 162 166 189 196 163 170 179 186 198 199 208 192 173 179 182 186 189 192 192 195 203 200 195 206 207 214 209 200 193 202 208 209 219 220 220 248 292 210 246
271 211 233 233 225 262 279 149 285 2 123 144 175 179 155 167 175 185 192 195 160 220 140 196 190 192 196 191 194 198 199 202 198 212 191 207 206 211 204 203 212 212 219 217 219 232 244 229 238